IRIDIUM 921

Last updated on Wed Nov 29 2017 00:19:02 GMT+0000 (Coordinated Universal Time)

1 24873U 97034E 17332.49428316 .00000676 00000-0 37575-4 0 9990 2 24873 86.3918 348.3029 0009806 119.7779 240.4436 15.11690918112912

Satellite not in orbit

IRIDIUM 921